| time (UTC) | temp F | wind direction | speed MPH | gust MPH | rain 1hr in | rain 24hr in | rain mn in | humidity % | barometer mb |
| 20260506001153 | 54 | 92 | 5.0 | 9.0 | 0.00 | 2.72 | 0.13 | 93 | 1011.3 |
| 20260506000656 | 54 | 85 | 3.0 | 8.0 | 0.00 | 2.72 | 0.13 | 93 | 1011.4 |
| 20260506000200 | 54 | 92 | 3.0 | 5.0 | 0.12 | 2.72 | 0.13 | 93 | 1011.5 |
| 20260505235657 | 54 | 114 | 1.0 | 5.0 | 0.16 | 2.72 | 0.13 | 93 | 1011.5 |
| 20260505235200 | 54 | 90 | 2.0 | 6.0 | 0.16 | 2.72 | 0.13 | 93 | 1011.7 |
| 20260505234715 | 54 | 86 | 2.0 | 6.0 | 0.16 | 2.72 | 0.13 | 93 | 1011.7 |
| 20260505234154 | 54 | 74 | 0.0 | 3.0 | 0.20 | 2.72 | 0.13 | 93 | 1011.6 |
| 20260505233649 | 54 | 74 | 1.0 | 3.0 | 0.24 | 2.72 | 0.13 | 93 | 1011.6 |
| 20260505233155 | 54 | 76 | 0.0 | 0.0 | 0.28 | 2.72 | 0.13 | 93 | 1011.6 |
| 20260505232658 | 54 | 76 | 0.0 | 0.0 | 0.28 | 2.72 | 0.13 | 93 | 1011.7 |
| 20260505232157 | 54 | 77 | 0.0 | 0.0 | 0.28 | 2.72 | 0.13 | 93 | 1011.8 |
| 20260505231655 | 54 | 77 | 0.0 | 0.0 | 0.31 | 2.72 | 0.13 | 93 | 1011.9 |
| 20260505231152 | 54 | 76 | 0.0 | 0.0 | 0.31 | 2.72 | 0.13 | 93 | 1011.9 |
| 20260505230720 | 54 | 76 | 0.0 | 2.0 | 0.39 | 2.72 | 0.13 | 93 | 1011.8 |
| 20260505230152 | 54 | 77 | 0.0 | 7.0 | 0.39 | 2.60 | 0.10 | 93 | 1011.9 |
| 20260505225650 | 54 | 76 | 1.0 | 7.0 | 0.39 | 2.56 | 0.09 | 93 | 1011.9 |
| 20260505225150 | 54 | 92 | 2.0 | 7.0 | 0.47 | 2.56 | 0.09 | 93 | 1011.8 |
| 20260505224703 | 54 | 73 | 2.0 | 7.0 | 0.55 | 2.56 | 0.09 | 93 | 1011.8 |
| 20260505224203 | 54 | 77 | 2.0 | 5.0 | 0.55 | 2.52 | 0.08 | 93 | 1011.9 |
| 20260505223703 | 54 | 81 | 0.0 | 0.0 | 0.55 | 2.48 | 0.07 | 93 | 1011.9 |
| 20260505223227 | 54 | 81 | 0.0 | 2.0 | 0.63 | 2.44 | 0.06 | 93 | 1011.9 |
| 20260505222702 | 54 | 81 | 0.0 | 2.0 | 0.75 | 2.44 | 0.06 | 93 | 1011.9 |
| 20260505222220 | 54 | 80 | 0.0 | 1.0 | 0.79 | 2.44 | 0.06 | 93 | 1011.9 |
| 20260505221658 | 54 | 80 | 0.0 | 4.0 | 0.79 | 2.40 | 0.05 | 93 | 1012.0 |
| 20260505221157 | 54 | 80 | 1.0 | 4.0 | 0.83 | 2.40 | 0.05 | 93 | 1011.8 |
| 20260505220652 | 54 | 75 | 0.0 | 0.0 | 0.71 | 2.28 | 0.02 | 93 | 1012.0 |
| 20260505220158 | 54 | 75 | 0.0 | 0.0 | 0.71 | 2.20 | 0.00 | 92 | 1012.1 |
| 20260505215655 | 54 | 75 | 0.0 | 0.0 | 0.67 | 2.17 | 0.55 | 93 | 1012.0 |
| 20260505215152 | 54 | 78 | 0.0 | 0.0 | 0.55 | 2.05 | 0.53 | 92 | 1012.2 |
| 20260505214705 | 54 | 78 | 0.0 | 0.0 | 0.51 | 2.01 | 0.51 | 92 | 1012.3 |
| 20260505214147 | 54 | 78 | 0.0 | 0.0 | 0.47 | 1.97 | 0.50 | 92 | 1012.3 |
| 20260505213645 | 54 | 78 | 0.0 | 0.0 | 0.43 | 1.93 | 0.49 | 92 | 1012.4 |
| 20260505213151 | 54 | 79 | 0.0 | 5.0 | 0.28 | 1.77 | 0.45 | 92 | 1012.5 |
| 20260505212704 | 54 | 81 | 0.0 | 5.0 | 0.16 | 1.65 | 0.42 | 92 | 1012.5 |
| 20260505212226 | 54 | 82 | 1.0 | 4.0 | 0.16 | 1.65 | 0.42 | 92 | 1012.5 |
| 20260505211703 | 54 | 71 | 1.0 | 4.0 | 0.12 | 1.61 | 0.41 | 92 | 1012.6 |
| 20260505211156 | 54 | 71 | 0.0 | 4.0 | 0.08 | 1.57 | 0.40 | 92 | 1012.6 |
| 20260505210650 | 54 | 71 | 0.0 | 0.0 | 0.08 | 1.57 | 0.40 | 92 | 1012.6 |
| 20260505210155 | 54 | 71 | 0.0 | 0.0 | 0.00 | 1.50 | 0.38 | 92 | 1012.7 |
| 20260505205659 | 54 | 71 | 0.0 | 0.0 | 0.00 | 1.50 | 0.38 | 92 | 1012.8 |
| 20260505205219 | 54 | 71 | 0.0 | 0.0 | 0.00 | 1.50 | 0.38 | 92 | 1012.7 |
| 20260505204701 | 54 | 53 | 0.0 | 0.0 | 0.00 | 1.50 | 0.38 | 92 | 1012.8 |
| 20260505204217 | 54 | 53 | 0.0 | 0.0 | 0.00 | 1.50 | 0.38 | 92 | 1012.8 |
| 20260505203656 | 54 | 53 | 0.0 | 0.0 | 0.00 | 1.50 | 0.38 | 92 | 1012.8 |
| 20260505203204 | 54 | 53 | 0.0 | 0.0 | 0.00 | 1.50 | 0.38 | 92 | 1012.8 |
| 20260505202700 | 54 | 53 | 0.0 | 0.0 | 0.04 | 1.50 | 0.38 | 92 | 1012.9 |
| 20260505202145 | 54 | 53 | 0.0 | 0.0 | 0.04 | 1.50 | 0.38 | 92 | 1012.8 |
| 20260505201658 | 54 | 53 | 0.0 | 0.0 | 0.04 | 1.50 | 0.38 | 92 | 1012.7 |
| 20260505201159 | 54 | 53 | 0.0 | 0.0 | 0.04 | 1.50 | 0.38 | 92 | 1012.7 |
| 20260505200659 | 54 | 53 | 0.0 | 0.0 | 0.04 | 1.50 | 0.38 | 92 | 1012.6 |
| 20260505200226 | 54 | 53 | 0.0 | 0.0 | 0.04 | 1.50 | 0.38 | 92 | 1012.6 |
| 20260505195705 | 54 | 53 | 0.0 | 0.0 | 0.04 | 1.50 | 0.38 | 92 | 1012.6 |
| 20260505195157 | 54 | 53 | 0.0 | 0.0 | 0.04 | 1.50 | 0.38 | 92 | 1012.6 |
| 20260505194712 | 54 | 53 | 0.0 | 0.0 | 0.04 | 1.50 | 0.38 | 92 | 1012.6 |
| 20260505194209 | 54 | 53 | 0.0 | 3.0 | 0.04 | 1.50 | 0.38 | 92 | 1012.5 |
| 20260505193650 | 54 | 57 | 0.0 | 0.0 | 0.04 | 1.50 | 0.38 | 92 | 1012.5 |
| 20260505193146 | 54 | 57 | 0.0 | 0.0 | 0.04 | 1.50 | 0.38 | 92 | 1012.6 |
| 20260505192706 | 54 | 59 | 0.0 | 1.0 | 0.00 | 1.46 | 0.37 | 92 | 1012.5 |
| 20260505192205 | 54 | 53 | 0.0 | 0.0 | 0.00 | 1.46 | 0.37 | 92 | 1012.5 |
| 20260505191700 | 54 | 53 | 0.0 | 0.0 | 0.00 | 1.46 | 0.37 | 92 | 1012.5 |
| 20260505191150 | 54 | 53 | 0.0 | 0.0 | 0.00 | 1.46 | 0.37 | 92 | 1012.4 |
| 20260505190655 | 54 | 53 | 0.0 | 5.0 | 0.00 | 1.46 | 0.37 | 92 | 1012.2 |
| 20260505190217 | 54 | 53 | 1.0 | 5.0 | 0.00 | 1.46 | 0.37 | 92 | 1012.0 |
| 20260505185648 | 54 | 63 | 2.0 | 7.0 | 0.00 | 1.46 | 0.37 | 92 | 1012.0 |
| 20260505185151 | 54 | 86 | 3.0 | 7.0 | 0.00 | 1.46 | 0.37 | 92 | 1012.2 |
| 20260505184704 | 54 | 85 | 3.0 | 7.0 | 0.00 | 1.46 | 0.37 | 93 | 1012.3 |
| 20260505184154 | 54 | 69 | 0.0 | 7.0 | 0.00 | 1.46 | 0.37 | 93 | 1012.3 |
| 20260505183651 | 54 | 68 | 0.0 | 5.0 | 0.00 | 1.46 | 0.37 | 93 | 1012.4 |
| 20260505183218 | 54 | 66 | 2.0 | 5.0 | 0.00 | 1.46 | 0.37 | 93 | 1012.4 |
| 20260505182653 | 54 | 88 | 1.0 | 7.0 | 0.00 | 1.46 | 0.37 | 93 | 1012.2 |
| 20260505182206 | 54 | 49 | 3.0 | 8.0 | 0.00 | 1.46 | 0.37 | 93 | 1012.1 |
| 20260505181728 | 54 | 55 | 2.0 | 5.0 | 0.00 | 1.46 | 0.37 | 93 | 1012.1 |
| 20260505181226 | 54 | 54 | 2.0 | 5.0 | 0.00 | 1.46 | 0.37 | 93 | 1012.2 |
| 20260505180656 | 54 | 81 | 1.0 | 5.0 | 0.00 | 1.46 | 0.37 | 93 | 1012.2 |
| 20260505180200 | 54 | 84 | 1.0 | 5.0 | 0.00 | 1.46 | 0.37 | 93 | 1012.3 |
| 20260505175657 | 54 | 88 | 1.0 | 6.0 | 0.00 | 1.46 | 0.37 | 93 | 1012.2 |
| 20260505175158 | 54 | 88 | 1.0 | 5.0 | 0.00 | 1.46 | 0.37 | 93 | 1012.1 |
| 20260505174712 | 54 | 95 | 0.0 | 0.0 | 0.00 | 1.46 | 0.37 | 93 | 1012.2 |
| 20260505174221 | 54 | 96 | 0.0 | 3.0 | 0.00 | 1.46 | 0.37 | 93 | 1012.3 |
| 20260505173652 | 54 | 97 | 0.0 | 5.0 | 0.00 | 1.46 | 0.37 | 93 | 1012.3 |
| 20260505173158 | 54 | 98 | 0.0 | 5.0 | 0.00 | 1.46 | 0.37 | 93 | 1012.3 |
| 20260505172656 | 54 | 98 | 2.0 | 5.0 | 0.00 | 1.46 | 0.37 | 93 | 1012.3 |
| 20260505172155 | 54 | 89 | 0.0 | 0.0 | 0.00 | 1.46 | 0.37 | 93 | 1012.3 |
| 20260505171649 | 54 | 88 | 0.0 | 2.0 | 0.00 | 1.46 | 0.37 | 93 | 1012.3 |
| 20260505171201 | 54 | 89 | 1.0 | 2.0 | 0.00 | 1.46 | 0.37 | 93 | 1012.2 |
| 20260505170657 | 54 | 95 | 0.0 | 4.0 | 0.00 | 1.46 | 0.37 | 94 | 1012.2 |
| 20260505170202 | 54 | 82 | 1.0 | 6.0 | 0.00 | 1.46 | 0.37 | 94 | 1012.1 |
| 20260505165700 | 54 | 84 | 2.0 | 6.0 | 0.00 | 1.46 | 0.37 | 94 | 1012.2 |
| 20260505165212 | 54 | 84 | 2.0 | 6.0 | 0.00 | 1.46 | 0.37 | 94 | 1012.3 |
| 20260505164644 | 54 | 87 | 0.0 | 6.0 | 0.00 | 1.46 | 0.37 | 94 | 1012.3 |
| 20260505164204 | 54 | 84 | 2.0 | 6.0 | 0.00 | 1.46 | 0.37 | 94 | 1012.3 |
| 20260505163713 | 54 | 88 | 1.0 | 5.0 | 0.00 | 1.46 | 0.37 | 94 | 1012.3 |
| 20260505163154 | 54 | 88 | 0.0 | 6.0 | 0.00 | 1.46 | 0.37 | 94 | 1012.3 |
| 20260505162704 | 54 | 93 | 3.0 | 6.0 | 0.00 | 1.46 | 0.37 | 94 | 1012.4 |
| 20260505162202 | 54 | 92 | 2.0 | 6.0 | 0.00 | 1.46 | 0.37 | 94 | 1012.4 |
| 20260505161654 | 53 | 87 | 4.0 | 7.0 | 0.00 | 1.46 | 0.37 | 93 | 1012.5 |
| 20260505161208 | 53 | 95 | 4.0 | 7.0 | 0.00 | 1.46 | 0.37 | 93 | 1012.5 |
| 20260505160647 | 53 | 80 | 3.0 | 5.0 | 0.04 | 1.46 | 0.37 | 93 | 1012.5 |
| 20260505160210 | 53 | 74 | 3.0 | 6.0 | 0.04 | 1.46 | 0.37 | 93 | 1012.6 |
| 20260505153200 | 53 | 80 | 3.0 | 6.0 | 0.08 | 1.46 | 0.37 | 93 | 1012.7 |
| 20260505152724 | 53 | 65 | 4.0 | 6.0 | 0.08 | 1.46 | 0.37 | 93 | 1012.7 |
| 20260505152152 | 53 | 71 | 0.0 | 3.0 | 0.08 | 1.46 | 0.37 | 93 | 1012.8 |
| 20260505151701 | 53 | 71 | 1.0 | 3.0 | 0.08 | 1.46 | 0.37 | 93 | 1012.8 |
| 20260505151153 | 53 | 115 | 0.0 | 1.0 | 0.08 | 1.46 | 0.37 | 93 | 1012.8 |
| 20260505150705 | 54 | 115 | 0.0 | 0.0 | 0.08 | 1.42 | 0.36 | 93 | 1012.8 |
| 20260505150203 | 54 | 115 | 0.0 | 0.0 | 0.08 | 1.42 | 0.36 | 93 | 1012.9 |
| 20260505140203 | 54 | 134 | 0.0 | 0.0 | 0.12 | 1.34 | 0.34 | 93 | 1012.9 |
| 20260505130200 | 54 | 137 | 0.0 | 0.0 | 0.00 | 1.22 | 0.31 | 92 | 1013.1 |
| 20260505124653 | 54 | 137 | 0.0 | 3.0 | 0.04 | 1.22 | 0.31 | 93 | 1013.0 |
| 20260505124143 | 54 | 138 | 1.0 | 4.0 | 0.04 | 1.22 | 0.31 | 93 | 1013.1 |
| 20260505123654 | 54 | 152 | 1.0 | 4.0 | 0.04 | 1.22 | 0.31 | 92 | 1013.1 |
| 20260505123156 | 54 | 161 | 0.0 | 0.0 | 0.04 | 1.22 | 0.31 | 92 | 1013.1 |
| 20260505122645 | 54 | 161 | 0.0 | 0.0 | 0.04 | 1.22 | 0.31 | 92 | 1013.1 |
| 20260505122203 | 54 | 161 | 0.0 | 0.0 | 0.04 | 1.22 | 0.31 | 92 | 1013.1 |
| 20260505121655 | 54 | 161 | 0.0 | 0.0 | 0.04 | 1.22 | 0.31 | 92 | 1013.2 |
| 20260505121226 | 54 | 161 | 0.0 | 0.0 | 0.04 | 1.22 | 0.31 | 92 | 1013.2 |
| 20260505120646 | 54 | 161 | 0.0 | 0.0 | 0.04 | 1.22 | 0.31 | 92 | 1013.3 |
| 20260505120155 | 55 | 161 | 0.0 | 0.0 | 0.04 | 1.22 | 0.31 | 92 | 1013.3 |
| 20260505115650 | 55 | 161 | 0.0 | 0.0 | 0.00 | 1.18 | 0.30 | 92 | 1013.3 |
| 20260505115159 | 55 | 161 | 0.0 | 0.0 | 0.00 | 1.18 | 0.30 | 92 | 1013.2 |
| 20260505114648 | 55 | 161 | 0.0 | 0.0 | 0.00 | 1.18 | 0.30 | 92 | 1013.2 |
| 20260505114202 | 55 | 161 | 0.0 | 0.0 | 0.00 | 1.18 | 0.30 | 92 | 1013.3 |
| 20260505113222 | 55 | 161 | 0.0 | 0.0 | 0.00 | 0.00 | 0.30 | 92 | 1013.2 |
| 20260505112740 | 55 | 161 | 0.0 | 0.0 | 0.00 | 0.00 | 0.30 | 92 | 1013.2 |
| 20260505112214 | 55 | 161 | 0.0 | 0.0 | 0.00 | 1.18 | 0.30 | 92 | 1013.2 |
| 20260505111155 | 55 | 161 | 0.0 | 0.0 | 0.00 | 1.18 | 0.30 | 92 | 1013.3 |
| 20260505110651 | 55 | 161 | 0.0 | 0.0 | 0.00 | 1.18 | 0.30 | 92 | 1013.3 |
| 20260505110155 | 55 | 161 | 0.0 | 0.0 | 0.00 | 1.18 | 0.30 | 92 | 1013.3 |
| 20260505102205 | 54 | 161 | 0.0 | 0.0 | 0.00 | 1.18 | 0.30 | 92 | 1013.3 |
| 20260505101721 | 54 | 161 | 0.0 | 0.0 | 0.00 | 1.18 | 0.30 | 92 | 1013.3 |
| 20260505101151 | 54 | 161 | 0.0 | 0.0 | 0.00 | 1.18 | 0.30 | 92 | 1013.3 |
| 20260505100650 | 54 | 161 | 0.0 | 1.0 | 0.00 | 1.18 | 0.30 | 92 | 1013.4 |
| 20260505100151 | 54 | 161 | 0.0 | 1.0 | 0.00 | 1.18 | 0.30 | 92 | 1013.4 |
| 20260505095706 | 54 | 161 | 0.0 | 2.0 | 0.00 | 1.18 | 0.30 | 92 | 1013.3 |
| 20260505095157 | 54 | 161 | 1.0 | 3.0 | 0.00 | 1.18 | 0.30 | 92 | 1013.2 |
| 20260505094716 | 54 | 161 | 1.0 | 3.0 | 0.00 | 1.18 | 0.30 | 92 | 1013.2 |
| 20260505094156 | 54 | 136 | 0.0 | 0.0 | 0.04 | 1.18 | 0.30 | 92 | 1013.3 |
| 20260505093652 | 54 | 135 | 0.0 | 0.0 | 0.04 | 1.18 | 0.30 | 92 | 1013.2 |
| 20260505093202 | 54 | 129 | 0.0 | 0.0 | 0.08 | 1.18 | 0.30 | 92 | 1013.2 |
| 20260505092658 | 54 | 129 | 0.0 | 0.0 | 0.12 | 1.18 | 0.30 | 92 | 1013.2 |
| 20260505092224 | 54 | 129 | 0.0 | 0.0 | 0.16 | 1.18 | 0.30 | 92 | 1013.2 |
| 20260505091703 | 54 | 129 | 0.0 | 0.0 | 0.16 | 1.18 | 0.30 | 92 | 1013.1 |
| 20260505091152 | 54 | 129 | 0.0 | 0.0 | 0.20 | 1.18 | 0.30 | 92 | 1013.1 |
| 20260505090645 | 53 | 129 | 0.0 | 0.0 | 0.24 | 1.18 | 0.30 | 91 | 1013.1 |
| 20260505090207 | 53 | 129 | 0.0 | 0.0 | 0.31 | 1.18 | 0.30 | 91 | 1013.1 |
| 20260505085701 | 53 | 129 | 0.0 | 0.0 | 0.39 | 1.18 | 0.30 | 91 | 1013.1 |
| 20260505085159 | 53 | 129 | 0.0 | 1.0 | 0.47 | 1.18 | 0.30 | 91 | 1013.1 |
| 20260505084657 | 53 | 129 | 0.0 | 1.0 | 0.55 | 1.18 | 0.30 | 91 | 1013.0 |
| 20260505084152 | 53 | 129 | 0.0 | 0.0 | 0.59 | 1.14 | 0.29 | 91 | 1013.0 |
| 20260505083652 | 53 | 129 | 0.0 | 0.0 | 0.71 | 1.14 | 0.29 | 91 | 1013.1 |
| 20260505083146 | 53 | 129 | 0.0 | 0.0 | 0.79 | 1.10 | 0.28 | 91 | 1013.1 |
| 20260505082700 | 53 | 129 | 0.0 | 0.0 | 0.83 | 1.06 | 0.27 | 90 | 1013.1 |
| 20260505082203 | 53 | 129 | 0.0 | 0.0 | 0.79 | 1.02 | 0.26 | 90 | 1013.1 |
| 20260505081716 | 53 | 129 | 0.0 | 1.0 | 0.87 | 1.02 | 0.26 | 90 | 1013.1 |
| 20260505081153 | 53 | 129 | 0.0 | 5.0 | 0.87 | 0.98 | 0.25 | 89 | 1013.1 |
| 20260505080652 | 53 | 129 | 1.0 | 7.0 | 0.87 | 0.94 | 0.24 | 89 | 1013.1 |
| 20260505080205 | 53 | 124 | 5.0 | 7.0 | 0.83 | 0.87 | 0.22 | 88 | 1013.1 |
| 20260505075701 | 53 | 94 | 2.0 | 7.0 | 0.75 | 0.79 | 0.20 | 87 | 1013.0 |
| 20260505075159 | 53 | 93 | 3.0 | 7.0 | 0.71 | 0.71 | 0.18 | 87 | 1013.2 |
| 20260505074717 | 53 | 36 | 0.0 | 0.0 | 0.63 | 0.63 | 0.16 | 87 | 1013.2 |
| 20260505074158 | 53 | 34 | 0.0 | 4.0 | 0.55 | 0.55 | 0.14 | 87 | 1013.2 |
| 20260505073702 | 54 | 34 | 1.0 | 4.0 | 0.43 | 0.43 | 0.11 | 86 | 1013.2 |
| 20260505073155 | 54 | 349 | 0.0 | 4.0 | 0.31 | 0.31 | 0.08 | 86 | 1013.3 |
| 20260505072653 | 54 | 310 | 1.0 | 4.0 | 0.24 | 0.24 | 0.06 | 85 | 1013.4 |
| 20260505072150 | 54 | 294 | 2.0 | 3.0 | 0.20 | 0.20 | 0.06 | 85 | 1013.4 |
| 20260505071703 | 54 | 340 | 1.0 | 4.0 | 0.16 | 0.16 | 0.04 | 85 | 1013.4 |
| 20260505071134 | 54 | 340 | 1.0 | 5.0 | 0.08 | 0.08 | 0.02 | 85 | 1013.3 |
| 20260505070204 | 55 | 342 | 3.0 | 5.0 | 0.08 | 0.08 | 0.02 | 83 | 1013.3 |
| 20260505065656 | 55 | 350 | 4.0 | 5.0 | 0.04 | 0.04 | 0.01 | 81 | 1013.2 |
| 20260505065150 | 55 | 355 | 3.0 | 4.0 | 0.04 | 0.04 | 0.01 | 79 | 1013.1 |
| 20260505064709 | 55 | 5 | 0.0 | 4.0 | 0.00 | 0.00 | 0.00 | 78 | 1013.1 |
| 20260505064208 | 55 | 5 | 0.0 | 4.0 | 0.00 | 0.00 | 0.00 | 76 | 1013.0 |
| 20260505063722 | 56 | 5 | 1.0 | 4.0 | 0.00 | 0.00 | 0.00 | 74 | 1012.9 |
| 20260505063224 | 56 | 5 | 0.0 | 0.0 | 0.00 | 0.00 | 0.00 | 74 | 1012.9 |
| 20260505062658 | 56 | 5 | 0.0 | 0.0 | 0.00 | 0.00 | 0.00 | 75 | 1012.9 |
| 20260505062151 | 56 | 5 | 0.0 | 1.0 | 0.00 | 0.00 | 0.00 | 75 | 1012.8 |
| 20260505061701 | 56 | 360 | 0.0 | 4.0 | 0.00 | 0.00 | 0.00 | 76 | 1012.8 |
| 20260505061152 | 56 | 360 | 1.0 | 3.0 | 0.00 | 0.00 | 0.00 | 77 | 1012.8 |
| 20260505060646 | 56 | 360 | 0.0 | 0.0 | 0.00 | 0.00 | 0.00 | 78 | 1012.8 |
| 20260505060150 | 56 | 360 | 0.0 | 0.0 | 0.00 | 0.00 | 0.00 | 77 | 1012.7 |
| 20260505055703 | 56 | 360 | 0.0 | 0.0 | 0.00 | 0.00 | 0.00 | 77 | 1012.7 |
| 20260505055200 | 56 | 360 | 0.0 | 0.0 | 0.00 | 0.00 | 0.00 | 77 | 1012.7 |
| 20260505054714 | 56 | 360 | 0.0 | 0.0 | 0.00 | 0.00 | 0.00 | 77 | 1012.6 |
| 20260505054156 | 56 | 360 | 0.0 | 0.0 | 0.00 | 0.00 | 0.00 | 76 | 1012.5 |
| 20260505053711 | 56 | 360 | 0.0 | 0.0 | 0.00 | 0.00 | 0.00 | 76 | 1012.4 |
| 20260505053152 | 56 | 360 | 0.0 | 0.0 | 0.00 | 0.00 | 0.00 | 76 | 1012.4 |
| 20260505052703 | 56 | 360 | 0.0 | 0.0 | 0.00 | 0.00 | 0.00 | 76 | 1012.4 |
| 20260505052205 | 56 | 360 | 0.0 | 0.0 | 0.00 | 0.00 | 0.00 | 76 | 1012.4 |
| 20260505051644 | 56 | 360 | 0.0 | 0.0 | 0.00 | 0.00 | 0.00 | 76 | 1012.4 |
| 20260505051204 | 56 | 360 | 0.0 | 0.0 | 0.00 | 0.00 | 0.00 | 75 | 1012.4 |
| 20260505050653 | 56 | 360 | 0.0 | 0.0 | 0.00 | 0.00 | 0.00 | 75 | 1012.4 |
| 20260505050157 | 56 | 360 | 0.0 | 0.0 | 0.00 | 0.00 | 0.00 | 75 | 1012.5 |
| 20260505041657 | 56 | 324 | 0.0 | 0.0 | 0.00 | 0.00 | 0.00 | 74 | 1012.3 |
| 20260505041208 | 56 | 324 | 0.0 | 0.0 | 0.00 | 0.00 | 0.00 | 74 | 1012.3 |
| 20260505040644 | 56 | 324 | 0.0 | 0.0 | 0.00 | 0.00 | 0.00 | 74 | 1012.3 |
| 20260505040151 | 57 | 324 | 0.0 | 2.0 | 0.00 | 0.00 | 0.00 | 73 | 1012.2 |
| 20260505035701 | 57 | 324 | 0.0 | 2.0 | 0.00 | 0.00 | 0.00 | 72 | 1012.1 |
| 20260505035154 | 57 | 324 | 0.0 | 3.0 | 0.00 | 0.00 | 0.00 | 71 | 1012.1 |
| 20260505034651 | 57 | 324 | 1.0 | 3.0 | 0.00 | 0.00 | 0.00 | 71 | 1012.1 |
| 20260505034148 | 57 | 324 | 1.0 | 3.0 | 0.00 | 0.00 | 0.00 | 70 | 1012.2 |
| 20260505033701 | 57 | 324 | 1.0 | 4.0 | 0.00 | 0.00 | 0.00 | 70 | 1012.2 |
| 20260505033223 | 57 | 324 | 1.0 | 4.0 | 0.00 | 0.00 | 0.00 | 69 | 1012.2 |
| 20260505032700 | 57 | 346 | 2.0 | 3.0 | 0.00 | 0.00 | 0.00 | 69 | 1012.2 |
| 20260505032223 | 57 | 346 | 0.0 | 0.0 | 0.00 | 0.00 | 0.00 | 68 | 1012.1 |
| 20260505031702 | 57 | 346 | 0.0 | 2.0 | 0.00 | 0.00 | 0.00 | 68 | 1012.1 |
| 20260505031200 | 57 | 346 | 0.0 | 4.0 | 0.00 | 0.00 | 0.00 | 68 | 1012.2 |
| 20260505030653 | 57 | 346 | 3.0 | 4.0 | 0.00 | 0.00 | 0.00 | 68 | 1012.3 |
| 20260505030146 | 57 | 346 | 0.0 | 0.0 | 0.00 | 0.00 | 0.00 | 68 | 1012.4 |
| 20260505025700 | 57 | 346 | 0.0 | 0.0 | 0.00 | 0.00 | 0.00 | 69 | 1012.4 |
| 20260505025158 | 57 | 346 | 0.0 | 0.0 | 0.00 | 0.00 | 0.00 | 68 | 1012.5 |
| 20260505024719 | 58 | 346 | 0.0 | 0.0 | 0.00 | 0.00 | 0.00 | 68 | 1012.6 |
| 20260505024155 | 58 | 346 | 0.0 | 0.0 | 0.00 | 0.00 | 0.00 | 67 | 1012.7 |
| 20260505023651 | 58 | 346 | 0.0 | 0.0 | 0.00 | 0.00 | 0.00 | 67 | 1012.8 |
| 20260505023158 | 58 | 346 | 0.0 | 0.0 | 0.00 | 0.00 | 0.00 | 67 | 1012.8 |
| 20260505022702 | 58 | 346 | 0.0 | 0.0 | 0.00 | 0.00 | 0.00 | 66 | 1012.9 |
| 20260505022155 | 58 | 346 | 0.0 | 3.0 | 0.00 | 0.00 | 0.00 | 66 | 1012.9 |
| 20260505021651 | 58 | 346 | 1.0 | 4.0 | 0.00 | 0.00 | 0.00 | 66 | 1013.1 |
| 20260505021152 | 58 | 346 | 1.0 | 4.0 | 0.00 | 0.00 | 0.00 | 65 | 1013.2 |
| 20260505020652 | 58 | 346 | 0.0 | 5.0 | 0.00 | 0.00 | 0.00 | 65 | 1013.4 |
| 20260505020152 | 58 | 346 | 3.0 | 5.0 | 0.00 | 0.00 | 0.00 | 64 | 1013.4 |
| 20260505015650 | 58 | 346 | 3.0 | 4.0 | 0.00 | 0.00 | 0.00 | 64 | 1013.4 |
| 20260505015146 | 58 | 355 | 2.0 | 4.0 | 0.00 | 0.00 | 0.00 | 65 | 1013.4 |
| 20260505014727 | 58 | 355 | 0.0 | 3.0 | 0.00 | 0.00 | 0.00 | 65 | 1013.5 |
| 20260505014205 | 58 | 355 | 0.0 | 0.0 | 0.00 | 0.00 | 0.00 | 66 | 1013.4 |
| 20260505013701 | 58 | 355 | 0.0 | 0.0 | 0.00 | 0.00 | 0.00 | 66 | 1013.4 |
| 20260505013144 | 58 | 355 | 0.0 | 0.0 | 0.00 | 0.00 | 0.00 | 65 | 1013.4 |
| 20260505012659 | 57 | 355 | 0.0 | 0.0 | 0.00 | 0.00 | 0.00 | 66 | 1013.4 |
| 20260505012156 | 57 | 355 | 0.0 | 0.0 | 0.00 | 0.00 | 0.00 | 67 | 1013.5 |
| 20260505011652 | 57 | 355 | 0.0 | 0.0 | 0.00 | 0.00 | 0.00 | 66 | 1013.7 |
| 20260505011145 | 57 | 355 | 0.0 | 2.0 | 0.00 | 0.00 | 0.00 | 66 | 1013.8 |
| 20260505010646 | 57 | 355 | 1.0 | 4.0 | 0.00 | 0.00 | 0.00 | 66 | 1013.7 |
| 20260505010147 | 57 | 355 | 2.0 | 4.0 | 0.00 | 0.00 | 0.00 | 66 | 1013.9 |
| 20260505005720 | 57 | 355 | 3.0 | 4.0 | 0.00 | 0.00 | 0.00 | 67 | 1014.0 |
| 20260505005153 | 58 | 355 | 2.0 | 4.0 | 0.00 | 0.00 | 0.00 | 67 | 1014.2 |
| 20260505004651 | 58 | 355 | 0.0 | 0.0 | 0.00 | 0.00 | 0.00 | 68 | 1014.2 |
| 20260505004149 | 58 | 355 | 0.0 | 2.0 | 0.00 | 0.00 | 0.00 | 67 | 1014.3 |
| 20260505003658 | 58 | 355 | 1.0 | 2.0 | 0.00 | 0.00 | 0.00 | 67 | 1014.4 |
| 20260505003203 | 58 | 355 | 0.0 | 3.0 | 0.00 | 0.00 | 0.00 | 66 | 1014.5 |
| 20260505002659 | 58 | 355 | 2.0 | 4.0 | 0.00 | 0.00 | 0.00 | 66 | 1014.5 |
| 20260505002152 | 58 | 355 | 3.0 | 4.0 | 0.00 | 0.00 | 0.00 | 67 | 1014.6 |